Home   Weather   Ndjamena   Past weeks

Flag for Chad Past Weather in Ndjamena, Chad — Yesterday and Last 2 Weeks

Now
100 °F

Thunderstorms. Passing clouds.


Feels Like: 102 °F
Forecast: 84 / 111 °F
Wind: 7 mph from Southwest

Location: Ndjamena

Current Time: Apr 26, 2017 at 6:43:40 pm

Latest Report: Apr 26, 2017 at 6:00 pm


Visibility: 4 mi

Pressure: 29.71 "Hg

Humidity: 29%

Dew Point: 63 °F

Location of NdjamenaLocation

Past Weather in Ndjamena — Graph

°F

Ndjamena Temperature Yesterday

Maximum temperature yesterday: 106 °F (at 2:00 pm)
Minimum temperature yesterday: 81 °F (at 5:00 am)
Average temperature yesterday: 93 °F

High & Low Weather Summary for the Past Weeks

 TemperatureHumidityPressure
High111 °F (Apr 23, 3:00 pm)74% (Apr 13, 7:00 am)29.92 "Hg (Apr 13, 7:00 am)
Low77 °F (Apr 22, 6:00 am)4% (Apr 24, 1:00 pm)29.53 "Hg (Apr 11, 5:00 pm)
Average94 °F26%29.76 "Hg
* Reported Apr 11 5:00 pm — Apr 26 5:00 pm, Ndjamena, Weather by CustomWeather, © 2017

Note: Actual official high and low records may vary slightly from our data, if they occured in-between our weather recording intervals... More about our weather records

Advertising

Ndjamena Weather History for the Previous 24 Hours

Scroll right to see more
 ConditionsComfort  
Time TempWeatherWind HumidityBarometerVisibility
5:00 pm
Wed, Apr 26
104 °FThunderstorms. Passing clouds.8 mph21%29.71 "HgN/A
4:00 pm108 °FPassing clouds.5 mph19%29.71 "HgN/A
3:00 pm108 °FPassing clouds.6 mph20%29.74 "HgN/A
2:00 pm106 °FScattered clouds.3 mph26%29.74 "HgN/A
1:00 pm106 °FPassing clouds.5 mph30%29.80 "HgN/A
12:00 pm102 °FScattered clouds.8 mph31%29.80 "HgN/A
11:00 am102 °FPassing clouds.10 mph21%29.86 "HgN/A
10:00 am99 °FSunny.15 mph25%29.86 "Hg10 mi
9:00 am95 °FSunny.12 mph32%29.86 "Hg10 mi
8:00 am91 °FPassing clouds.9 mph36%29.86 "HgN/A
7:00 am88 °FSunny.6 mph40%29.80 "Hg10 mi
6:00 am84 °FSunny.5 mph45%29.80 "Hg10 mi
5:00 am86 °FClear.10 mph46%29.77 "Hg10 mi
4:00 am86 °FClear.7 mph46%29.77 "Hg10 mi
3:00 am88 °FClear.9 mph43%29.77 "Hg10 mi
2:00 am90 °FClear.9 mph41%29.77 "Hg10 mi
1:00 am90 °FClear.7 mph36%29.77 "Hg10 mi
12:00 am91 °FClear.9 mph36%29.80 "Hg10 mi
11:00 pm
Tue, Apr 25
93 °FClear.10 mph36%29.80 "Hg10 mi
10:00 pm93 °FClear.6 mph34%29.77 "Hg10 mi
9:00 pm93 °FClear.No wind32%29.77 "Hg10 mi
8:00 pm97 °FClear.No wind27%29.74 "Hg10 mi
7:00 pm99 °FClear.3 mph27%29.71 "Hg10 mi
6:00 pm102 °FSunny.5 mph26%29.71 "Hg10 mi
Weather by CustomWeather, © 2017

See weather overviewHow to use our weather pages